Ahmadabad, India

11:01 PM IST on February 27, 2017 (GMT +0530)
Ahmedabad

Weather History for VAAH - January, 2013

Change the Weather History Date:

Wednesday, January 2, 2013

  Actual Average Record
Temperature  
Mean Temperature 62 °F -  
Max Temperature 78 °F 78 °F 88 °F (2016)
Min Temperature 47 °F 53 °F 47 °F (2013)
Degree Days  
Heating Degree Days 2    
Growing Degree Days 12 (Base 50)    
Moisture  
Dew Point 39 °F    
Average Humidity 43    
Maximum Humidity 62    
Minimum Humidity 27    
Precipitation  
Precipitation 0.00 in 0.00 in - ()
Sea Level Pressure  
Sea Level Pressure 29.94 in    
Wind  
Wind Speed 4 mph ()    
Max Wind Speed 7 mph    
Max Gust Speed -    
Visibility 2.5 miles    
Events      
Averages and records for this station are not official NWS values.
T = Trace of Precipitation, MM = Missing Value Source: Averaged Metar Reports

Daily Weather History Graph

Daily Weather History Graph

Search for Another Location

Airport or City:

Trip Planner

Search our weather history database for the weather conditions in past years. The results will help you decide how hot, cold, wet, or windy it might be!

Date:

Astronomy

Jan. 02, 2013 Rise Set
Actual Time 7:20 AM IST 6:06 PM IST
Civil Twilight 6:56 AM IST 6:30 PM IST
Nautical Twilight 6:28 AM IST 6:58 PM IST
Astronomical Twilight 6:00 AM IST 7:26 PM IST
Moon 10:34 PM IST (1/2) 10:22 AM IST (1/2)
Length of Visible Light 11h 34m
Length of Day
10h 45m
Waning Gibbous, 79% of the Moon is Illuminated
Jan 2
Waning Gibbous
Jan 5
Last Quarter
Jan 12
New
Jan 19
First Quarter
Jan 27
Full

Hourly Weather History & Observations

Time (IST) Temp. Windchill Dew Point Humidity Pressure Visibility Wind Dir Wind Speed Gust Speed Precip Events Conditions
12:10 AM 55.4 °F - 39.2 °F 54% 29.92 in 2.5 mi North 4.6 mph - N/A   Smoke
12:40 AM 55.4 °F - 39.2 °F 54% 29.89 in 2.5 mi NE 4.6 mph - N/A   Smoke
1:10 AM 53.6 °F - 37.4 °F 54% 29.89 in 2.5 mi NNE 4.6 mph - N/A   Smoke
1:40 AM 55.4 °F - 33.8 °F 44% 29.89 in 2.5 mi NW 3.5 mph - N/A   Smoke
2:10 AM 55.4 °F - 33.8 °F 44% 29.89 in 2.5 mi NW 3.5 mph - N/A   Smoke
2:30 AM 58 °F - 40 °F 39% 29.92 in 2 mi West 4.6 mph - -  
2:40 AM 55.4 °F - 33.8 °F 44% 29.89 in 2.5 mi NNW 5.8 mph - N/A   Smoke
3:10 AM 55.4 °F - 33.8 °F 44% 29.89 in 2.5 mi NW 3.5 mph - N/A   Smoke
3:40 AM 55.4 °F - 33.8 °F 44% 29.89 in 2.5 mi WNW 3.5 mph - N/A   Smoke
4:10 AM 53.6 °F - 33.8 °F 47% 29.89 in 2.5 mi NW 4.6 mph - N/A   Smoke
4:40 AM 51.8 °F - 33.8 °F 50% 29.89 in 2.5 mi NNW 4.6 mph - N/A   Smoke
5:10 AM 50.0 °F - 33.8 °F 54% 29.89 in 2.5 mi NNW 4.6 mph - N/A   Smoke
5:30 AM 56 °F - 39 °F 40% 29.93 in 2 mi WNW 5.8 mph - -  
5:40 AM 50.0 °F - 33.8 °F 54% 29.92 in 2.5 mi NNW 4.6 mph - N/A   Smoke
6:10 AM 50.0 °F - 33.8 °F 54% 29.92 in 2.5 mi NNE 3.5 mph - N/A   Smoke
6:40 AM 48.2 °F - 33.8 °F 58% 29.92 in 2.2 mi North 3.5 mph - N/A   Smoke
7:40 AM 46.4 °F 43.5 °F 33.8 °F 62% 29.95 in 1.6 mi NNE 5.8 mph - N/A   Smoke
8:10 AM 50.0 °F - 35.6 °F 58% 29.95 in 1.6 mi West 5.8 mph - N/A   Smoke
8:30 AM 54 °F - 40 °F 49% 29.99 in 1 mi WNW 2.3 mph - -   Haze
8:40 AM 53.6 °F - 35.6 °F 51% 29.98 in 1.6 mi WNW 5.8 mph - N/A   Smoke
9:10 AM 55.4 °F - 37.4 °F 51% 30.01 in 1.6 mi NW 5.8 mph - N/A   Smoke
10:10 AM 64.4 °F - 39.2 °F 40% 30.01 in 2.2 mi North 5.8 mph - N/A   Smoke
11:30 AM 71 °F - 45 °F 27% 30.03 in 2 mi NE 2.3 mph - -   Smoke
11:40 AM 71.6 °F - 44.6 °F 38% 29.98 in 3.1 mi NNE 6.9 mph - N/A   Smoke
12:10 PM 73.4 °F - 46.4 °F 38% 29.98 in 3.7 mi NE 6.9 mph - N/A   Unknown
12:40 PM 75.2 °F - 46.4 °F 36% 29.95 in 3.7 mi North 5.8 mph - N/A   Unknown
1:10 PM 75.2 °F - 46.4 °F 36% 29.95 in 3.7 mi North 5.8 mph - N/A   Unknown
2:30 PM 77 °F - 50 °F 27% 29.94 in 2 mi NW 4.6 mph - -   Smoke
2:40 PM 78.8 °F - 44.6 °F 30% 29.89 in 3.1 mi North 4.6 mph - N/A   Unknown
3:10 PM 78.8 °F - 44.6 °F 30% 29.89 in 3.1 mi NNW 4.6 mph - N/A   Smoke
3:40 PM 78.8 °F - 42.8 °F 28% - 3.1 mi NNW 6.9 mph - N/A   Smoke
5:10 PM 78.8 °F - 42.8 °F 28% 29.89 in 3.1 mi North 5.8 mph - N/A   Smoke
5:30 PM 77 °F - 49 °F 27% 29.92 in 2 mi NW 4.6 mph - -   Smoke
5:40 PM 75.2 °F - 42.8 °F 31% 29.89 in 3.1 mi NNW 3.5 mph - N/A   Smoke
6:10 PM 73.4 °F - 42.8 °F 33% 29.92 in 2.5 mi NNW 6.9 mph - N/A   Smoke
6:40 PM 69.8 °F - 42.8 °F 38% 29.92 in 2.5 mi NNW 3.5 mph - N/A   Smoke
7:10 PM 68.0 °F - 41.0 °F 37% 29.95 in 2.5 mi NNW 3.5 mph - N/A   Smoke
7:40 PM 64.4 °F - 42.8 °F 45% 29.95 in 2.5 mi Variable 3.5 mph - N/A   Smoke
8:10 PM 64.4 °F - 41.0 °F 42% 29.95 in 2.5 mi NNW 3.5 mph - N/A   Smoke
8:30 PM 66 °F - 45 °F 35% 29.98 in 2 mi North 3.5 mph - -  
8:40 PM 62.6 °F - 39.2 °F 42% 29.95 in 2.5 mi NNW 3.5 mph - N/A   Smoke
9:10 PM 60.8 °F - 39.2 °F 45% 29.95 in 2.5 mi NNW 3.5 mph - N/A   Smoke
9:40 PM 60.8 °F - 35.6 °F 39% 29.95 in 2.5 mi Variable 3.5 mph - N/A   Smoke
10:10 PM 59.0 °F - 39.2 °F 48% 29.95 in 2.5 mi Variable 3.5 mph - N/A   Smoke
10:40 PM 59.0 °F - 37.4 °F 45% 29.95 in 2.5 mi Variable 3.5 mph - N/A   Smoke
11:10 PM 57.2 °F - 37.4 °F 48% 29.95 in 2.5 mi Variable 2.3 mph - N/A   Smoke
11:30 PM 62 °F - 41 °F 34% 29.99 in 2 mi North 3.5 mph - -  
11:40 PM 57.2 °F - 37.4 °F 48% 29.98 in 2.5 mi North 4.6 mph - N/A   Smoke